FIREFLY ALPHA R/B, 60210

Orbit data source: Space-Track

FIREFLY ALPHA R/B, 60210 is space debris in SSO originally from a launch on Thu, 04 Jul 2024 UTC launched from the Air Force Western Test Range (AFWTR). Debris objects in space refer to the collection of defunct objects orbiting the Earth. Examples of debris include non-operational satellites, rocket bodies, and fragments generated from explosions, collisions, or faulty payload assembly.

Loading next visibility...
Identifier
60210, 2024-125H
Orbit
SSO
Country
Flag of USUS
Related business
Manufacturer
Firefly
Mission
Spacecraft
Bus & Motor
FIREFLY A2, Unknown motor
Mass
909 kg wet, 909 kg dry
Launch date (UTC)
2024-07-04 (1 year ago)
Launch vehicle
Unknown
Launch site
Air Force Western Test Range (AFWTR)
Object type
Payload
Rocket body
Debris
Shape & HBR
Cyl, 2.9 m
Radar Cross Section
9.508 m², Large (>1 m²)

Expand to show TLE details & history
Last TLE update: 8 hours ago

TLE from 8 hours ago
0 FIREFLY ALPHA R/B
1 60210U 24125H   25302.55351434  .00031153  00000-0  57953-3 0  9990
2 60210  97.2464 158.3698 0031013 321.5256  38.3783 15.48280747 74093
Epoch: 2025-10-29T13:17Z
TLE epoch observation values (Epoch: 2025-10-29T13:17:03.638Z)
Latitude
-0.0001°
Longitude
-79.02034°
Altitude
408.378 km
Speed
7.675 km/s
True Right ascension
10h 33m 28s
True Declination
0° 00' 00"
Sunlit
Object was in daylight at epoch
Visualization orbit readout
Latitude
Unknown
Longitude
Unknown
Altitude
Unknown
Speed
Unknown
Apparent Right ascension
Unknown
Apparent Declination
Unknown
Sunlit
N/A
Visualization observer readout
Local Sidereal Time
17:00:04
Azimuth
Unknown
Elevation
Unknown
Doppler factor
Unknown
Orbital elements
Apogee altitude
439.756 km
Perigee altitude
397.598 km
Semi-major axis
6,796.814 km
Eccentricity
0.0031
Inclination
97.2464°
RAAN
158.3698°
Arg. of periapsis
321.5256°
True anomaly
38.59961°
Mean anomaly
38.3783°
Eccentric anomaly
38.48889°
Mean motion
3.87334 °/min
Orbital period
92.94 mins
BSTAR
0.00057953
Loading maneuver chart data...
Computing Atmospheric mass density...
Loading historical data...
Loading historical data...
Loading historical data...
Loading historical data...
Loading historical data...
Loading historical data...
Loading historical data...

Documentation

Showing up to 5 results
|